2021-03-11 00:07:36 r, 19.91m,0000000001Hz,0000507080c,0000001.100s, 008.7C,00002191
2021-03-11 00:17:35 r, 19.89m,0000000001Hz,0000495258c,0000001.075s, 008.7C,00002191
2021-03-11 00:27:34 r, 20.01m,0000000001Hz,0000547912c,0000001.189s, 009.0C,00002191
2021-03-11 00:37:34 r, 19.74m,0000000001Hz,0000429257c,0000000.932s, 009.0C,00002191
2021-03-11 00:47:35 r, 19.69m,0000000001Hz,0000409026c,0000000.888s, 009.0C,00002191
2021-03-11 00:57:36 r, 19.54m,0000000001Hz,0000358044c,0000000.777s, 009.0C,00002191
2021-03-11 01:07:34 r, 19.73m,0000000001Hz,0000423196c,0000000.918s, 009.0C,00002191
2021-03-11 01:17:36 r, 19.77m,0000000001Hz,0000438765c,0000000.952s, 009.3C,00002191
2021-03-11 01:27:35 r, 19.62m,0000000002Hz,0000383963c,0000000.833s, 009.3C,00002191
2021-03-11 01:37:34 r, 19.70m,0000000001Hz,0000410906c,0000000.892s, 009.3C,00002191
2021-03-11 01:47:35 r, 19.85m,0000000001Hz,0000472121c,0000001.025s, 009.0C,00002191
2021-03-11 01:57:37 r, 20.00m,0000000001Hz,0000538564c,0000001.169s, 009.0C,00002191
2021-03-11 02:07:34 r, 19.89m,0000000001Hz,0000491661c,0000001.067s, 009.0C,00002191
2021-03-11 02:17:37 r, 20.18m,0000000001Hz,0000641077c,0000001.391s, 009.0C,00002191
2021-03-11 02:27:35 r, 20.33m,0000000001Hz,0000734316c,0000001.594s, 008.7C,00002191
2021-03-11 02:37:34 r, 20.67m,0000000000Hz,0001015568c,0000002.204s, 008.7C,00002191
2021-03-11 02:47:37 r, 20.58m,0000000001Hz,0000926278c,0000002.010s, 008.3C,00002191
2021-03-11 02:57:35 r, 20.55m,0000000000Hz,0000907974c,0000001.970s, 008.3C,00002191
2021-03-11 03:07:34 r, 20.55m,0000000001Hz,0000902156c,0000001.958s, 008.0C,00002191
2021-03-11 03:17:35 r, 20.68m,0000000000Hz,0001018992c,0000002.211s, 008.0C,00002191
2021-03-11 03:27:36 r, 20.75m,0000000000Hz,0001081129c,0000002.346s, 007.7C,00002191
2021-03-11 03:37:34 r, 20.68m,0000000000Hz,0001013801c,0000002.200s, 007.7C,00002191
2021-03-11 03:47:36 r, 20.36m,0000000001Hz,0000756108c,0000001.641s, 007.7C,00002191
2021-03-11 03:57:35 r, 20.15m,0000000001Hz,0000629697c,0000001.367s, 007.4C,00002191
2021-03-11 04:07:34 r, 20.38m,0000000000Hz,0000766971c,0000001.664s, 007.4C,00002191
2021-03-11 04:17:35 r, 20.57m,0000000000Hz,0000916900c,0000001.990s, 007.4C,00002191
2021-03-11 04:27:37 r, 20.57m,0000000001Hz,0000923265c,0000002.004s, 007.4C,00002191
2021-03-11 04:37:34 r, 20.55m,0000000000Hz,0000904710c,0000001.963s, 007.0C,00002191
2021-03-11 04:47:37 r, 20.55m,0000000000Hz,0000898740c,0000001.950s, 007.0C,00002191
2021-03-11 04:57:35 r, 20.54m,0000000000Hz,0000895108c,0000001.943s, 006.7C,00002191
2021-03-11 05:07:34 r, 20.73m,0000000001Hz,0001059572c,0000002.299s, 006.7C,00002191
2021-03-11 05:17:37 r, 20.67m,0000000000Hz,0001003115c,0000002.177s, 006.7C,00002191
2021-03-11 05:27:35 r, 20.45m,0000000000Hz,0000820833c,0000001.781s, 006.7C,00002191
2021-03-11 05:37:34 r, 20.00m,0000000000Hz,0000543090c,0000001.179s, 006.7C,00002191
2021-03-11 05:47:35 r, 19.03m,0000000002Hz,0000225209c,0000000.489s, 006.7C,00002191
2021-03-11 05:57:35 r, 17.58m,0000000007Hz,0000058943c,0000000.128s, 006.7C,00002191
2021-03-11 06:07:34 r, 15.71m,0000000043Hz,0000010560c,0000000.023s, 006.7C,00002191
2021-03-11 06:17:35 r, 13.63m,0000000299Hz,0000000000c,0000000.000s, 006.7C,00002191
2021-03-11 06:27:35 r, 11.75m,0000001691Hz,0000000000c,0000000.000s, 007.0C,00002191
2021-03-11 06:37:34 r, 09.90m,0000009299Hz,0000000000c,0000000.000s, 007.7C,00002191
2021-03-11 06:47:35 r, 08.56m,0000031985Hz,0000000000c,0000000.000s, 008.0C,00002191
2021-03-11 06:57:36 r, 07.48m,0000086195Hz,0000000000c,0000000.000s, 008.3C,00002191
2021-03-11 07:07:34 r, 06.96m,0000138530Hz,0000000000c,0000000.000s, 008.7C,00002191
2021-03-11 07:17:37 r, 06.41m,0000229759Hz,0000000000c,0000000.000s, 009.0C,00002191
2021-03-11 07:27:35 r, 06.14m,0000295759Hz,0000000000c,0000000.000s, 009.3C,00002191
2021-03-11 07:37:34 r, 00.00m,0000494999Hz,0000000000c,0000000.000s, 009.6C,00002191
2021-03-11 07:47:36 r, 00.00m,0000598166Hz,0000000000c,0000000.000s, 009.6C,00002191
2021-03-11 07:57:35 r, 00.00m,0000598092Hz,0000000000c,0000000.000s, 009.9C,00002191
2021-03-11 08:07:34 r, 00.00m,0000598145Hz,0000000000c,0000000.000s, 009.9C,00002191
2021-03-11 08:17:35 r, 00.00m,0000598090Hz,0000000000c,0000000.000s, 010.3C,00002191
2021-03-11 08:27:37 r, 00.00m,0000598026Hz,0000000000c,0000000.000s, 010.6C,00002191
2021-03-11 08:37:34 r, 00.00m,0000597973Hz,0000000000c,0000000.000s, 010.6C,00002191
2021-03-11 08:47:36 r, 00.00m,0000598056Hz,0000000000c,0000000.000s, 010.6C,00002191
2021-03-11 08:57:35 r, 00.00m,0000598097Hz,0000000000c,0000000.000s, 010.3C,00002191
2021-03-11 09:07:34 r, 00.00m,0000598041Hz,0000000000c,0000000.000s, 010.3C,00002191
2021-03-11 09:17:37 r, 00.00m,0000598117Hz,0000000000c,0000000.000s, 009.9C,00002191
2021-03-11 09:27:35 r, 00.00m,0000598111Hz,0000000000c,0000000.000s, 009.6C,00002191
2021-03-11 09:37:34 r, 00.00m,0000598087Hz,0000000000c,0000000.000s, 009.6C,00002191
2021-03-11 09:47:36 r, 00.00m,0000598122Hz,0000000000c,0000000.000s, 009.6C,00002191
2021-03-11 09:57:35 r, 00.00m,0000598129Hz,0000000000c,0000000.000s, 009.9C,00002191
2021-03-11 10:07:34 r, 00.00m,0000598026Hz,0000000000c,0000000.000s, 009.9C,00002191
2021-03-11 10:17:35 r, 00.00m,0000598089Hz,0000000000c,0000000.000s, 009.6C,00002191
2021-03-11 10:27:36 r, 00.00m,0000598087Hz,0000000000c,0000000.000s, 009.9C,00002191
2021-03-11 10:37:34 r, 00.00m,0000598094Hz,0000000000c,0000000.000s, 009.9C,00002191
2021-03-11 10:47:35 r, 00.00m,0000598139Hz,0000000000c,0000000.000s, 009.9C,00002191
2021-03-11 10:57:35 r, 00.00m,0000597986Hz,0000000000c,0000000.000s, 009.6C,00002191
2021-03-11 11:07:34 r, 00.00m,0000598044Hz,0000000000c,0000000.000s, 009.3C,00002191
2021-03-11 11:17:35 r, 00.00m,0000597963Hz,0000000000c,0000000.000s, 009.3C,00002191
2021-03-11 11:27:37 r, 00.00m,0000598091Hz,0000000000c,0000000.000s, 009.3C,00002191
2021-03-11 11:37:34 r, 00.00m,0000597951Hz,0000000000c,0000000.000s, 009.6C,00002191
2021-03-11 11:47:37 r, 00.00m,0000598115Hz,0000000000c,0000000.000s, 009.9C,00002191
2021-03-11 11:57:35 r, 00.00m,0000597912Hz,0000000000c,0000000.000s, 010.9C,00002191
2021-03-11 12:07:34 r, 00.00m,0000597785Hz,0000000000c,0000000.000s, 011.6C,00002191
2021-03-11 12:17:37 r, 00.00m,0000597686Hz,0000000000c,0000000.000s, 012.8C,00002191
2021-03-11 12:27:35 r, 00.00m,0000597567Hz,0000000000c,0000000.000s, 013.8C,00002191
2021-03-11 12:37:34 r, 00.00m,0000597547Hz,0000000000c,0000000.000s, 013.5C,00002191
2021-03-11 12:47:35 r, 00.00m,0000597348Hz,0000000000c,0000000.000s, 015.1C,00002191
2021-03-11 12:57:35 r, 00.00m,0000597234Hz,0000000000c,0000000.000s, 015.7C,00002191
2021-03-11 13:07:34 r, 00.00m,0000597345Hz,0000000000c,0000000.000s, 015.7C,00002191
2021-03-11 13:17:36 r, 00.00m,0000597342Hz,0000000000c,0000000.000s, 015.4C,00002191
2021-03-11 13:27:35 r, 00.00m,0000597285Hz,0000000000c,0000000.000s, 015.7C,00002191
2021-03-11 13:37:34 r, 00.00m,0000597125Hz,0000000000c,0000000.000s, 016.7C,00002191
2021-03-11 13:47:35 r, 00.00m,0000597163Hz,0000000000c,0000000.000s, 016.4C,00002191
2021-03-11 13:57:37 r, 00.00m,0000597306Hz,0000000000c,0000000.000s, 016.1C,00002191
2021-03-11 14:07:34 r, 00.00m,0000597256Hz,0000000000c,0000000.000s, 016.7C,00002191
2021-03-11 14:17:37 r, 00.00m,0000597177Hz,0000000000c,0000000.000s, 017.0C,00002191
2021-03-11 14:27:35 r, 00.00m,0000597164Hz,0000000000c,0000000.000s, 017.7C,00002191
2021-03-11 14:37:34 r, 00.00m,0000597046Hz,0000000000c,0000000.000s, 018.0C,00002191
2021-03-11 14:47:37 r, 00.00m,0000596989Hz,0000000000c,0000000.000s, 018.0C,00002191
2021-03-11 14:57:35 r, 00.00m,0000597107Hz,0000000000c,0000000.000s, 017.7C,00002191
2021-03-11 15:07:34 r, 00.00m,0000597173Hz,0000000000c,0000000.000s, 017.0C,00002191
2021-03-11 15:17:35 r, 00.00m,0000597298Hz,0000000000c,0000000.000s, 016.7C,00002191
2021-03-11 15:27:37 r, 00.00m,0000597282Hz,0000000000c,0000000.000s, 016.4C,00002191
2021-03-11 15:37:34 r, 00.00m,0000597335Hz,0000000000c,0000000.000s, 015.7C,00002191
2021-03-11 15:47:35 r, 00.00m,0000597310Hz,0000000000c,0000000.000s, 015.4C,00002191
2021-03-11 15:57:35 r, 00.00m,0000597427Hz,0000000000c,0000000.000s, 015.1C,00002191
2021-03-11 16:07:34 r, 00.00m,0000597523Hz,0000000000c,0000000.000s, 014.5C,00002191
2021-03-11 16:17:37 r, 00.00m,0000597606Hz,0000000000c,0000000.000s, 014.1C,00002191
2021-03-11 16:27:35 r, 00.00m,0000597578Hz,0000000000c,0000000.000s, 013.5C,00002191
2021-03-11 16:37:34 r, 00.00m,0000597680Hz,0000000000c,0000000.000s, 013.2C,00002191
2021-03-11 16:47:36 r, 00.00m,0000597699Hz,0000000000c,0000000.000s, 012.5C,00002191
2021-03-11 16:57:35 r, 00.00m,0000597817Hz,0000000000c,0000000.000s, 011.9C,00002191
2021-03-11 17:07:34 r, 00.00m,0000597876Hz,0000000000c,0000000.000s, 011.2C,00002191
2021-03-11 17:17:34 r, 00.00m,0000597913Hz,0000000000c,0000000.000s, 010.9C,00002191
2021-03-11 17:27:35 r, 00.00m,0000581042Hz,0000000000c,0000000.000s, 010.3C,00002191
2021-03-11 17:37:35 r, 00.00m,0000500690Hz,0000000000c,0000000.000s, 009.6C,00002191
2021-03-11 17:47:34 r, 00.00m,0000408121Hz,0000000000c,0000000.000s, 009.3C,00002191
2021-03-11 17:57:36 r, 06.13m,0000300813Hz,0000000000c,0000000.000s, 008.3C,00002191
2021-03-11 18:07:35 r, 06.48m,0000216549Hz,0000000000c,0000000.000s, 007.4C,00002191
2021-03-11 18:17:34 r, 07.03m,0000130916Hz,0000000000c,0000000.000s, 006.7C,00002191
2021-03-11 18:27:36 r, 07.88m,0000059467Hz,0000000000c,0000000.000s, 006.1C,00002191
2021-03-11 18:37:35 r, 09.15m,0000018630Hz,0000000000c,0000000.000s, 005.4C,00002191
2021-03-11 18:47:34 r, 10.97m,0000003483Hz,0000000000c,0000000.000s, 005.1C,00002191
2021-03-11 18:57:35 r, 13.11m,0000000480Hz,0000000000c,0000000.000s, 004.8C,00002191
2021-03-11 19:07:35 r, 15.33m,0000000063Hz,0000007428c,0000000.016s, 004.8C,00002191
2021-03-11 19:17:34 r, 17.22m,0000000011Hz,0000042340c,0000000.092s, 004.5C,00002191
2021-03-11 19:27:35 r, 18.70m,0000000003Hz,0000166628c,0000000.362s, 004.5C,00002191
2021-03-11 19:37:35 r, 19.84m,0000000001Hz,0000468618c,0000001.017s, 004.1C,00002191
2021-03-11 19:47:34 r, 20.45m,0000000001Hz,0000820255c,0000001.780s, 003.8C,00002191
2021-03-11 19:57:35 r, 20.66m,0000000000Hz,0000996343c,0000002.162s, 003.8C,00002191
2021-03-11 20:07:36 r, 20.72m,0000000000Hz,0001051674c,0000002.282s, 003.5C,00002191
2021-03-11 20:17:34 r, 20.74m,0000000001Hz,0001068247c,0000002.318s, 003.2C,00002191
2021-03-11 20:27:36 r, 20.75m,0000000000Hz,0001078299c,0000002.340s, 002.9C,00002191
2021-03-11 20:37:35 r, 20.75m,0000000000Hz,0001088770c,0000002.363s, 002.5C,00002191
2021-03-11 20:47:34 r, 20.76m,0000000000Hz,0001097691c,0000002.382s, 002.2C,00002191
2021-03-11 20:57:36 r, 20.77m,0000000000Hz,0001100358c,0000002.388s, 001.9C,00002191
2021-03-11 21:07:35 r, 20.76m,0000000000Hz,0001094685c,0000002.376s, 001.9C,00002191
2021-03-11 21:17:34 r, 20.79m,0000000001Hz,0001114399c,0000002.418s, 001.6C,00002191
2021-03-11 21:27:35 r, 20.79m,0000000001Hz,0001118839c,0000002.428s, 001.6C,00002191
2021-03-11 21:37:35 r, 20.79m,0000000001Hz,0001118610c,0000002.428s, 001.6C,00002191
2021-03-11 21:47:34 r, 20.78m,0000000000Hz,0001112068c,0000002.413s, 001.2C,00002191
2021-03-11 21:57:35 r, 20.79m,0000000000Hz,0001130388c,0000002.453s, 001.2C,00002191
2021-03-11 22:07:35 r, 20.81m,0000000001Hz,0001139952c,0000002.474s, 001.2C,00002191
2021-03-11 22:17:34 r, 20.82m,0000000000Hz,0001148036c,0000002.491s, 001.2C,00002191
2021-03-11 22:27:35 r, 20.82m,0000000000Hz,0001153392c,0000002.503s, 000.9C,00002191
2021-03-11 22:37:36 r, 20.82m,0000000001Hz,0001159174c,0000002.516s, 000.9C,00002191
2021-03-11 22:47:34 r, 20.83m,0000000000Hz,0001164180c,0000002.526s, 000.9C,00002191
2021-03-11 22:57:36 r, 20.83m,0000000001Hz,0001165618c,0000002.530s, 000.9C,00002191
2021-03-11 23:07:35 r, 20.84m,0000000000Hz,0001175459c,0000002.551s, 000.9C,00002191
2021-03-11 23:17:34 r, 20.84m,0000000000Hz,0001174336c,0000002.548s, 001.2C,00002191
2021-03-11 23:27:36 r, 20.84m,0000000000Hz,0001172661c,0000002.545s, 000.9C,00002191
2021-03-11 23:37:35 r, 20.84m,0000000000Hz,0001173142c,0000002.546s, 000.9C,00002191
2021-03-11 23:47:34 r, 20.84m,0000000001Hz,0001174605c,0000002.549s, 000.9C,00002191
2021-03-11 23:57:35 r, 20.84m,0000000001Hz,0001178777c,0000002.558s, 000.9C,00002191
